QPF
0.01 0.01 0.01 0.01 0.01 0.01 0.02 0.03 0.03 0.02 0.02 0.03 0.03 0.04 0.04 0.03 0.03 0.03 0.03 0.03 0.03 0.03 0.03 0.03 0.05 0.06 0.06 0.06 0.05 0.04 0.03 0.03 0.03 0.03 0.03 0.02 0.02 0.03 0.03 0.03 0.02 0.02 0.02 0.01
0.01 0.01 0.01 0.01 0.01 0.01 0.02 0.02 0.02 0.02 0.02 0.03 0.03 0.03 0.03 0.03 0.02 0.02 0.03 0.04 0.04 0.03 0.03 0.03 0.04 0.05 0.06 0.06 0.04 0.04 0.04 0.03 0.03 0.03 0.04 0.03 0.02 0.02 0.03 0.03 0.02 0.02 0.02 0.02
0.01 0.00 0.01 0.01 0.02 0.01 0.01 0.02 0.02 0.02 0.02 0.02 0.02 0.02 0.03 0.03 0.02 0.03 0.03 0.04 0.05 0.04 0.03 0.04 0.05 0.05 0.06 0.05 0.04 0.03 0.05 0.05 0.04 0.04 0.04 0.04 0.03 0.02 0.02 0.02 0.03 0.03 0.03 0.02
0.01 0.01 0.01 0.01 0.01 0.01 0.01 0.01 0.01 0.02 0.02 0.02 0.02 0.02 0.03 0.03 0.03 0.03 0.03 0.04 0.05 0.04 0.04 0.04 0.05 0.05 0.05 0.04 0.03 0.03 0.04 0.05 0.05 0.04 0.04 0.04 0.03 0.03 0.02 0.02 0.02 0.02 0.03 0.03
0.01 0.01 0.01 0.01 0.01 0.01 0.01 0.01 0.01 0.01 0.01 0.01 0.01 0.01 0.01 0.02 0.02 0.03 0.03 0.04 0.04 0.04 0.04 0.04 0.05 0.05 0.04 0.03 0.02 0.03 0.04 0.04 0.04 0.04 0.04 0.04 0.04 0.03 0.03 0.02 0.02 0.02 0.02 0.02
0.01 0.01 0.01 0.01 0.00 0.01 0.01 0.01 0.01 0.01 0.02 0.02 0.01 0.01 0.01 0.01 0.02 0.02 0.02 0.03 0.04 0.04 0.03 0.04 0.04 0.04 0.03 0.02 0.02 0.02 0.03 0.03 0.03 0.03 0.03 0.04 0.04 0.03 0.03 0.02 0.02 0.02 0.02 0.01
0.01 0.01 0.01 0.01 0.00 0.00 0.01 0.01 0.01 0.01 0.02 0.02 0.02 0.03 0.02 0.01 0.01 0.02 0.02 0.02 0.03 0.04 0.04 0.04 0.04 0.03 0.02 0.02 0.02 0.02 0.03 0.03 0.03 0.03 0.03 0.03 0.03 0.03 0.03 0.03 0.03 0.02 0.02 0.01
0.01 0.01 0.01 0.01 0.00 0.01 0.02 0.01 0.01 0.01 0.01 0.02 0.02 0.01 0.01 0.01 0.01 0.01 0.02 0.02 0.03 0.04 0.05 0.05 0.04 0.03 0.02 0.02 0.02 0.02 0.03 0.03 0.03 0.03 0.02 0.02 0.03 0.03 0.04 0.04 0.04 0.03 0.03 0.03
0.01 0.01 0.01 0.01 0.01 0.01 0.01 0.01 0.01 0.01 0.01 0.01 0.01 0.01 0.01 0.01 0.01 0.02 0.02 0.02 0.03 0.04 0.06 0.06 0.05 0.04 0.03 0.03 0.02 0.02 0.03 0.03 0.03 0.03 0.02 0.02 0.02 0.04 0.04 0.04 0.04 0.04 0.04 0.03
0.01 0.01 0.01 0.01 0.01 0.01 0.01 0.01 0.01 0.01 0.02 0.02 0.01 0.01 0.01 0.01 0.01 0.02 0.02 0.02 0.02 0.04 0.06 0.06 0.06 0.05 0.05 0.04 0.03 0.02 0.03 0.04 0.03 0.03 0.03 0.02 0.03 0.04 0.04 0.04 0.04 0.04 0.04 0.04
0.00 0.00 0.00 0.00 0.01 0.01 0.01 0.00 0.01 0.01 0.01 0.01 0.01 0.01 0.01 0.01 0.01 0.01 0.02 0.02 0.02 0.04 0.06 0.07 0.06 0.06 0.04 0.04 0.03 0.03 0.03 0.05 0.04 0.04 0.04 0.03 0.03 0.04 0.04 0.05 0.05 0.05 0.05 0.04
0.01 0.01 0.01 0.01 0.01 0.01 0.01 0.01 0.01 0.01 0.01 0.01 0.01 0.01 0.01 0.01 0.01 0.01 0.02 0.02 0.02 0.03 0.05 0.06 0.05 0.05 0.05 0.04 0.03 0.04 0.04 0.04 0.05 0.05 0.05 0.05 0.04 0.04 0.05 0.05 0.05 0.04 0.04 0.05
0.01 0.01 0.01 0.00 0.00 0.00 0.01 0.01 0.01 0.01 0.01 0.01 0.01 0.01 0.01 0.01 0.01 0.01 0.02 0.02 0.02 0.02 0.04 0.04 0.05 0.05 0.05 0.04 0.04 0.04 0.04 0.04 0.04 0.04 0.04 0.05 0.05 0.04 0.04 0.05 0.05 0.05 0.04 0.04
0.01 0.01 0.01 0.01 0.01 0.01 0.01 0.01 0.01 0.01 0.02 0.02 0.02 0.02 0.02 0.03 0.02 0.02 0.02 0.03 0.03 0.03 0.03 0.04 0.04 0.04 0.05 0.04 0.04 0.04 0.04 0.04 0.04 0.04 0.04 0.04 0.04 0.04 0.04 0.05 0.05 0.05 0.04 0.05
0.00 0.01 0.01 0.01 0.01 0.01 0.01 0.01 0.01 0.01 0.02 0.02 0.02 0.02 0.02 0.02 0.03 0.04 0.04 0.04 0.03 0.03 0.03 0.03 0.03 0.04 0.04 0.04 0.04 0.03 0.03 0.03 0.03 0.03 0.03 0.04 0.04 0.04 0.04 0.05 0.05 0.05 0.04 0.04
0.01 0.01 0.01 0.01 0.01 0.01 0.01 0.01 0.01 0.01 0.02 0.02 0.02 0.02 0.03 0.03 0.03 0.03 0.04 0.04 0.03 0.03 0.03 0.03 0.03 0.03 0.04 0.04 0.04 0.03 0.03 0.03 0.03 0.03 0.03 0.03 0.04 0.04 0.04 0.04 0.04 0.03 0.03 0.03
0.01 0.01 0.01 0.01 0.01 0.01 0.01 0.01 0.02 0.02 0.02 0.02 0.03 0.04 0.03 0.03 0.03 0.03 0.03 0.03 0.02 0.02 0.03 0.03 0.03 0.03 0.03 0.04 0.03 0.03 0.03 0.03 0.02 0.02 0.02 0.02 0.03 0.03 0.03 0.04 0.04 0.03 0.03 0.04
0.01 0.01 0.01 0.01 0.01 0.01 0.01 0.01 0.02 0.02 0.03 0.03 0.03 0.04 0.03 0.03 0.03 0.03 0.03 0.02 0.02 0.02 0.03 0.02 0.02 0.02 0.02 0.02 0.03 0.03 0.03 0.02 0.02 0.01 0.01 0.02 0.02 0.02 0.03 0.03 0.03 0.03 0.02 0.02
0.00 0.01 0.01 0.01 0.01 0.01 0.01 0.01 0.02 0.02 0.02 0.02 0.02 0.03 0.03 0.03 0.03 0.03 0.03 0.02 0.01 0.01 0.02 0.02 0.02 0.02 0.02 0.02 0.02 0.03 0.03 0.02 0.02 0.01 0.01 0.01 0.02 0.02 0.02 0.03 0.03 0.02 0.02 0.02
0.00 0.00 0.01 0.01 0.01 0.01 0.01 0.01 0.01 0.01 0.02 0.02 0.02 0.01 0.02 0.02 0.03 0.03 0.02 0.02 0.02 0.02 0.02 0.02 0.02 0.02 0.02 0.02 0.02 0.02 0.02 0.02 0.02 0.01 0.01 0.01 0.02 0.02 0.02 0.02 0.03 0.03 0.02 0.02
0.00 0.00 0.00 0.01 0.01 0.01 0.01 0.01 0.01 0.01 0.01 0.01 0.01 0.01 0.01 0.02 0.02 0.02 0.01 0.01 0.02 0.02 0.02 0.02 0.02 0.02 0.02 0.01 0.01 0.01 0.02 0.02 0.02 0.02 0.02 0.02 0.02 0.02 0.02 0.02 0.02 0.02 0.02 0.02
0.00 0.00 0.00 0.00 0.00 0.00 0.00 0.00 0.01 0.01 0.01 0.01 0.01 0.01 0.01 0.01 0.01 0.01 0.01 0.01 0.02 0.01 0.01 0.01 0.01 0.01 0.01 0.01 0.01 0.01 0.01 0.01 0.02 0.02 0.02 0.02 0.02 0.02 0.02 0.02 0.02 0.02 0.02 0.02
0.00 0.00 0.00 0.00 0.00 0.00 0.00 0.00 0.00 0.00 0.00 0.00 0.01 0.01 0.01 0.01 0.01 0.01 0.01 0.01 0.01 0.01 0.01 0.01 0.01 0.01 0.01 0.01 0.01 0.01 0.01 0.01 0.01 0.02 0.02 0.02 0.02 0.03 0.03 0.03 0.03 0.03 0.03 0.03
0.00 0.00 0.00 0.00 0.00 0.00 0.00 0.00 0.00 0.00 0.00 0.00 0.00 0.01 0.01 0.01 0.01 0.01 0.01 0.01 0.01 0.01 0.01 0.01 0.01 0.01 0.01 0.01 0.01 0.01 0.01 0.01 0.01 0.02 0.02 0.02 0.02 0.03 0.03 0.03 0.03 0.03 0.03 0.03
0.00 0.00 0.00 0.00 0.00 0.00 0.00 0.00 0.00 0.00 0.00 0.00 0.00 0.00 0.00 0.01 0.01 0.01 0.01 0.01 0.01 0.01 0.00 0.00 0.01 0.01 0.01 0.01 0.01 0.01 0.01 0.01 0.02 0.02 0.02 0.02 0.02 0.02 0.03 0.03 0.04 0.04 0.04 0.04
0.00 0.00 0.00 0.00 0.00 0.00 0.00 0.00 0.00 0.00 0.00 0.00 0.00 0.00 0.00 0.00 0.00 0.00 0.01 0.01 0.01 0.00 0.00 0.00 0.00 0.00 0.01 0.01 0.01 0.01 0.01 0.01 0.01 0.01 0.02 0.02 0.02 0.02 0.02 0.03 0.03 0.04 0.04 0.04
0.00 0.00 0.00 0.00 0.00 0.00 0.00 0.00 0.00 0.00 0.00 0.00 0.00 0.00 0.00 0.00 0.00 0.00 0.00 0.01 0.00 0.00 0.00 0.00 0.00 0.00 0.01 0.01 0.01 0.01 0.01 0.01 0.01 0.01 0.01 0.02 0.02 0.02 0.02 0.03 0.03 0.03 0.03 0.03
MSLP
1029.97 1030.04 1030.21 1030.45 1030.77 1031.09 1031.39 1031.59 1031.65 1031.51 1031.16 1030.59 1029.84 1028.95 1028.01 1027.08 1026.20 1025.42 1024.75 1024.16 1023.60 1023.02 1022.36 1021.57 1020.63 1019.54 1018.35 1017.09 1015.86 1014.73 1013.74 1012.94 1012.35 1011.96 1011.73 1011.63 1011.62 1011.67 1011.75 1011.88 1012.05 1012.30 1012.64 1013.08
1030.04 1030.08 1030.22 1030.45 1030.75 1031.10 1031.42 1031.68 1031.80 1031.74 1031.47 1030.99 1030.33 1029.52 1028.64 1027.74 1026.88 1026.09 1025.39 1024.76 1024.17 1023.55 1022.88 1022.10 1021.20 1020.17 1019.06 1017.91 1016.77 1015.72 1014.79 1014.02 1013.43 1013.00 1012.70 1012.52 1012.40 1012.34 1012.30 1012.32 1012.38 1012.52 1012.75 1013.09
1030.18 1030.13 1030.18 1030.33 1030.58 1030.89 1031.21 1031.50 1031.68 1031.71 1031.55 1031.20 1030.66 1029.97 1029.18 1028.35 1027.52 1026.74 1026.02 1025.35 1024.70 1024.06 1023.36 1022.58 1021.72 1020.76 1019.73 1018.67 1017.63 1016.66 1015.78 1015.04 1014.44 1013.97 1013.61 1013.34 1013.14 1012.97 1012.85 1012.77 1012.75 1012.79 1012.93 1013.17
1030.45 1030.28 1030.20 1030.24 1030.38 1030.61 1030.90 1031.18 1031.40 1031.51 1031.46 1031.23 1030.82 1030.26 1029.58 1028.83 1028.06 1027.29 1026.55 1025.85 1025.17 1024.49 1023.78 1023.02 1022.19 1021.30 1020.35 1019.38 1018.42 1017.51 1016.68 1015.95 1015.33 1014.81 1014.38 1014.03 1013.74 1013.50 1013.30 1013.15 1013.05 1013.03 1013.10 1013.25
1030.86 1030.56 1030.35 1030.24 1030.26 1030.39 1030.60 1030.85 1031.08 1031.23 1031.27 1031.15 1030.86 1030.42 1029.84 1029.17 1028.44 1027.70 1026.96 1026.24 1025.54 1024.84 1024.13 1023.39 1022.61 1021.78 1020.91 1020.01 1019.12 1018.26 1017.45 1016.71 1016.04 1015.46 1014.96 1014.53 1014.16 1013.85 1013.58 1013.38 1013.23 1013.16 1013.17 1013.25
1031.36 1030.95 1030.60 1030.36 1030.25 1030.27 1030.40 1030.60 1030.81 1030.99 1031.07 1031.03 1030.83 1030.48 1029.99 1029.38 1028.70 1027.98 1027.25 1026.52 1025.81 1025.10 1024.40 1023.69 1022.95 1022.18 1021.38 1020.55 1019.71 1018.87 1018.06 1017.30 1016.58 1015.93 1015.35 1014.83 1014.39 1014.00 1013.68 1013.43 1013.25 1013.14 1013.10 1013.13
1031.84 1031.35 1030.91 1030.57 1030.35 1030.28 1030.33 1030.47 1030.66 1030.83 1030.94 1030.95 1030.81 1030.52 1030.09 1029.54 1028.89 1028.19 1027.46 1026.73 1026.01 1025.31 1024.62 1023.94 1023.24 1022.52 1021.77 1020.99 1020.18 1019.36 1018.54 1017.73 1016.96 1016.23 1015.57 1014.97 1014.44 1013.99 1013.62 1013.33 1013.11 1012.97 1012.90 1012.89
1032.19 1031.67 1031.19 1030.79 1030.52 1030.38 1030.38 1030.48 1030.64 1030.81 1030.93 1030.97 1030.87 1030.62 1030.23 1029.72 1029.10 1028.41 1027.68 1026.94 1026.22 1025.52 1024.84 1024.17 1023.50 1022.81 1022.10 1021.35 1020.56 1019.74 1018.90 1018.05 1017.22 1016.42 1015.67 1014.99 1014.40 1013.89 1013.47 1013.13 1012.88 1012.71 1012.61 1012.57
1032.30 1031.80 1031.33 1030.94 1030.66 1030.52 1030.51 1030.59 1030.75 1030.92 1031.06 1031.11 1031.05 1030.84 1030.48 1029.99 1029.39 1028.71 1027.98 1027.24 1026.51 1025.80 1025.11 1024.44 1023.78 1023.10 1022.40 1021.66 1020.88 1020.05 1019.18 1018.30 1017.41 1016.55 1015.73 1014.99 1014.32 1013.75 1013.28 1012.91 1012.62 1012.42 1012.29 1012.22
1032.10 1031.68 1031.28 1030.96 1030.74 1030.64 1030.66 1030.77 1030.95 1031.14 1031.30 1031.39 1031.36 1031.19 1030.87 1030.41 1029.84 1029.17 1028.44 1027.69 1026.93 1026.20 1025.49 1024.80 1024.12 1023.43 1022.72 1021.98 1021.18 1020.34 1019.45 1018.53 1017.60 1016.68 1015.81 1015.00 1014.28 1013.66 1013.13 1012.71 1012.39 1012.16 1012.00 1011.91
1031.58 1031.29 1031.02 1030.81 1030.70 1030.69 1030.78 1030.96 1031.18 1031.42 1031.63 1031.77 1031.78 1031.66 1031.39 1030.98 1030.43 1029.79 1029.06 1028.30 1027.52 1026.75 1026.00 1025.27 1024.55 1023.83 1023.09 1022.31 1021.50 1020.63 1019.71 1018.77 1017.81 1016.85 1015.93 1015.08 1014.30 1013.63 1013.05 1012.59 1012.23 1011.97 1011.79 1011.68
1030.81 1030.66 1030.56 1030.51 1030.54 1030.65 1030.84 1031.10 1031.40 1031.71 1031.97 1032.17 1032.25 1032.20 1031.99 1031.64 1031.14 1030.53 1029.82 1029.06 1028.26 1027.45 1026.65 1025.85 1025.08 1024.30 1023.51 1022.69 1021.84 1020.94 1020.00 1019.03 1018.04 1017.06 1016.11 1015.21 1014.39 1013.67 1013.05 1012.54 1012.15 1011.85 1011.66 1011.55
1029.88 1029.90 1029.97 1030.09 1030.27 1030.52 1030.82 1031.17 1031.55 1031.92 1032.26 1032.52 1032.68 1032.70 1032.57 1032.30 1031.87 1031.30 1030.63 1029.87 1029.06 1028.21 1027.36 1026.50 1025.66 1024.81 1023.96 1023.09 1022.19 1021.26 1020.30 1019.31 1018.30 1017.29 1016.30 1015.37 1014.51 1013.75 1013.09 1012.54 1012.11 1011.80 1011.59 1011.49
1028.92 1029.11 1029.35 1029.62 1029.95 1030.31 1030.71 1031.14 1031.58 1032.02 1032.41 1032.74 1032.97 1033.07 1033.03 1032.84 1032.49 1031.99 1031.37 1030.63 1029.82 1028.95 1028.05 1027.14 1026.23 1025.32 1024.40 1023.48 1022.54 1021.58 1020.58 1019.57 1018.54 1017.51 1016.49 1015.53 1014.63 1013.83 1013.13 1012.55 1012.09 1011.77 1011.57 1011.48
1028.06 1028.39 1028.77 1029.17 1029.60 1030.06 1030.52 1031.00 1031.49 1031.95 1032.39 1032.76 1033.06 1033.23 1033.28 1033.17 1032.91 1032.49 1031.93 1031.23 1030.44 1029.57 1028.65 1027.69 1026.73 1025.77 1024.80 1023.83 1022.85 1021.85 1020.84 1019.80 1018.75 1017.69 1016.65 1015.66 1014.72 1013.88 1013.14 1012.53 1012.06 1011.74 1011.55 1011.51
1027.37 1027.81 1028.28 1028.78 1029.27 1029.77 1030.27 1030.76 1031.25 1031.72 1032.17 1032.57 1032.90 1033.14 1033.26 1033.23 1033.06 1032.72 1032.23 1031.59 1030.84 1029.98 1029.06 1028.10 1027.11 1026.11 1025.11 1024.11 1023.10 1022.09 1021.05 1019.99 1018.92 1017.84 1016.78 1015.75 1014.78 1013.89 1013.13 1012.49 1012.02 1011.70 1011.54 1011.54
1026.89 1027.40 1027.93 1028.46 1028.98 1029.49 1029.97 1030.44 1030.90 1031.34 1031.78 1032.18 1032.52 1032.80 1032.97 1033.01 1032.91 1032.66 1032.24 1031.68 1030.97 1030.16 1029.27 1028.32 1027.34 1026.34 1025.33 1024.33 1023.31 1022.29 1021.24 1020.17 1019.09 1017.98 1016.89 1015.82 1014.81 1013.89 1013.09 1012.44 1011.96 1011.65 1011.53 1011.58
1026.62 1027.15 1027.70 1028.23 1028.74 1029.21 1029.66 1030.07 1030.48 1030.87 1031.26 1031.64 1031.98 1032.27 1032.47 1032.57 1032.53 1032.34 1032.00 1031.51 1030.87 1030.12 1029.28 1028.37 1027.42 1026.46 1025.48 1024.49 1023.49 1022.48 1021.44 1020.37 1019.27 1018.15 1017.03 1015.92 1014.88 1013.92 1013.08 1012.41 1011.91 1011.62 1011.53 1011.63
1026.50 1027.03 1027.57 1028.08 1028.55 1028.97 1029.35 1029.71 1030.05 1030.38 1030.72 1031.05 1031.37 1031.65 1031.86 1031.99 1031.99 1031.86 1031.58 1031.15 1030.59 1029.91 1029.14 1028.30 1027.41 1026.50 1025.58 1024.64 1023.68 1022.70 1021.69 1020.63 1019.53 1018.39 1017.24 1016.10 1015.01 1014.01 1013.14 1012.43 1011.92 1011.63 1011.56 1011.70
1026.49 1027.01 1027.52 1027.99 1028.41 1028.78 1029.10 1029.39 1029.66 1029.94 1030.23 1030.52 1030.80 1031.06 1031.27 1031.40 1031.43 1031.33 1031.09 1030.72 1030.22 1029.61 1028.92 1028.16 1027.36 1026.53 1025.68 1024.81 1023.92 1022.99 1022.01 1020.97 1019.88 1018.73 1017.56 1016.39 1015.26 1014.21 1013.30 1012.56 1012.02 1011.71 1011.64 1011.80
1026.53 1027.02 1027.50 1027.94 1028.32 1028.64 1028.91 1029.16 1029.39 1029.62 1029.86 1030.12 1030.37 1030.60 1030.79 1030.91 1030.94 1030.86 1030.65 1030.32 1029.87 1029.32 1028.70 1028.03 1027.32 1026.58 1025.82 1025.03 1024.21 1023.35 1022.42 1021.42 1020.34 1019.20 1018.01 1016.81 1015.64 1014.55 1013.58 1012.80 1012.22 1011.88 1011.79 1011.95
1026.59 1027.06 1027.51 1027.91 1028.26 1028.55 1028.80 1029.02 1029.23 1029.44 1029.66 1029.89 1030.11 1030.32 1030.49 1030.59 1030.60 1030.51 1030.31 1030.00 1029.59 1029.10 1028.54 1027.94 1027.32 1026.67 1026.00 1025.31 1024.58 1023.78 1022.91 1021.96 1020.91 1019.78 1018.58 1017.36 1016.16 1015.02 1014.01 1013.17 1012.54 1012.15 1012.03 1012.16
1026.64 1027.09 1027.51 1027.89 1028.22 1028.50 1028.74 1028.96 1029.17 1029.38 1029.60 1029.82 1030.03 1030.22 1030.36 1030.43 1030.42 1030.31 1030.10 1029.80 1029.41 1028.95 1028.45 1027.92 1027.37 1026.81 1026.23 1025.63 1024.98 1024.27 1023.46 1022.56 1021.55 1020.45 1019.26 1018.03 1016.80 1015.63 1014.57 1013.68 1012.99 1012.55 1012.37 1012.45
1026.67 1027.10 1027.50 1027.85 1028.17 1028.44 1028.69 1028.93 1029.15 1029.38 1029.62 1029.84 1030.05 1030.23 1030.35 1030.40 1030.36 1030.23 1030.00 1029.69 1029.31 1028.88 1028.41 1027.94 1027.45 1026.97 1026.48 1025.96 1025.40 1024.77 1024.04 1023.20 1022.24 1021.17 1020.01 1018.79 1017.55 1016.36 1015.27 1014.33 1013.60 1013.09 1012.86 1012.87
1026.69 1027.08 1027.44 1027.77 1028.07 1028.34 1028.60 1028.85 1029.11 1029.37 1029.63 1029.87 1030.09 1030.26 1030.37 1030.40 1030.33 1030.18 1029.94 1029.62 1029.24 1028.83 1028.40 1027.97 1027.54 1027.13 1026.71 1026.28 1025.80 1025.24 1024.59 1023.83 1022.93 1021.92 1020.80 1019.61 1018.40 1017.21 1016.10 1015.14 1014.36 1013.81 1013.50 1013.46
1026.68 1027.01 1027.32 1027.61 1027.88 1028.14 1028.40 1028.68 1028.96 1029.25 1029.53 1029.80 1030.03 1030.21 1030.32 1030.33 1030.26 1030.09 1029.84 1029.52 1029.15 1028.76 1028.36 1027.97 1027.60 1027.25 1026.90 1026.54 1026.14 1025.67 1025.10 1024.42 1023.61 1022.67 1021.62 1020.49 1019.32 1018.16 1017.07 1016.09 1015.29 1014.70 1014.34 1014.23
1026.62 1026.88 1027.11 1027.34 1027.57 1027.80 1028.06 1028.34 1028.64 1028.95 1029.27 1029.56 1029.81 1030.00 1030.11 1030.14 1030.06 1029.90 1029.65 1029.35 1029.00 1028.63 1028.27 1027.92 1027.61 1027.31 1027.03 1026.74 1026.42 1026.03 1025.55 1024.96 1024.24 1023.39 1022.43 1021.38 1020.28 1019.18 1018.14 1017.19 1016.39 1015.78 1015.38 1015.22
Thickness
5317 5322 5322 5320 5319 5318 5311 5311 5309 5312 5315 5316 5317 5319 5324 5326 5328 5333 5337 5343 5349 5356 5364 5373 5384 5394 5404 5416 5426 5436 5445 5453 5460 5467 5473 5478 5483 5488 5494 5499 5504 5509 5513 5517
5313 5323 5322 5319 5318 5314 5310 5307 5304 5306 5307 5310 5309 5312 5314 5315 5319 5322 5326 5331 5337 5345 5352 5362 5371 5382 5392 5404 5414 5424 5433 5442 5449 5454 5460 5465 5471 5476 5482 5487 5492 5497 5502 5506
5311 5319 5315 5307 5310 5305 5302 5301 5299 5297 5300 5303 5302 5303 5303 5305 5308 5311 5316 5321 5327 5333 5340 5349 5359 5369 5380 5392 5403 5412 5421 5429 5436 5442 5447 5453 5459 5464 5469 5475 5480 5486 5490 5495
5303 5304 5292 5306 5305 5303 5298 5296 5295 5296 5296 5295 5293 5294 5296 5298 5300 5302 5306 5311 5317 5324 5332 5340 5349 5359 5370 5381 5391 5400 5408 5416 5423 5429 5435 5441 5446 5452 5457 5463 5468 5473 5478 5482
5295 5293 5301 5303 5298 5291 5287 5287 5288 5287 5288 5287 5288 5290 5293 5294 5293 5293 5297 5302 5309 5316 5323 5331 5341 5350 5360 5371 5379 5387 5395 5403 5410 5417 5423 5429 5435 5440 5445 5450 5455 5461 5465 5469
5287 5285 5288 5295 5289 5289 5284 5279 5282 5280 5278 5278 5280 5278 5283 5286 5285 5287 5291 5296 5301 5308 5315 5323 5332 5341 5351 5359 5367 5374 5382 5390 5398 5405 5411 5417 5423 5428 5432 5437 5443 5448 5452 5456
5277 5278 5286 5284 5283 5284 5272 5275 5276 5274 5272 5270 5268 5267 5271 5275 5277 5280 5285 5289 5295 5300 5307 5314 5322 5331 5339 5347 5353 5361 5369 5378 5385 5392 5398 5404 5410 5416 5421 5426 5431 5436 5439 5443
5273 5270 5275 5275 5275 5269 5268 5272 5271 5269 5266 5265 5264 5265 5267 5269 5271 5275 5278 5283 5288 5293 5299 5306 5314 5321 5328 5335 5342 5350 5358 5366 5373 5380 5387 5392 5397 5403 5408 5413 5418 5421 5425 5428
5273 5275 5278 5272 5269 5268 5266 5264 5264 5262 5260 5258 5258 5259 5261 5263 5265 5268 5272 5276 5280 5285 5291 5298 5305 5311 5317 5324 5332 5339 5347 5354 5361 5368 5374 5380 5385 5390 5396 5400 5405 5408 5412 5415
5269 5273 5274 5269 5267 5264 5261 5258 5257 5255 5253 5252 5251 5252 5253 5256 5258 5261 5265 5268 5273 5278 5283 5289 5295 5301 5306 5313 5321 5328 5335 5342 5349 5356 5362 5367 5372 5378 5383 5387 5392 5396 5399 5402
5261 5265 5268 5268 5263 5260 5256 5253 5251 5249 5248 5246 5246 5247 5247 5249 5252 5254 5258 5262 5266 5270 5275 5280 5285 5291 5297 5303 5310 5316 5323 5330 5336 5343 5349 5355 5360 5365 5370 5375 5379 5384 5387 5390
5263 5265 5259 5259 5257 5254 5251 5247 5245 5243 5242 5242 5242 5242 5244 5244 5246 5248 5251 5255 5259 5263 5267 5271 5276 5281 5287 5293 5299 5305 5311 5318 5324 5330 5336 5342 5348 5352 5357 5362 5367 5371 5375 5378
5263 5261 5257 5255 5252 5249 5245 5242 5240 5238 5237 5237 5238 5238 5239 5240 5242 5243 5246 5249 5252 5255 5258 5261 5266 5271 5277 5282 5288 5294 5299 5306 5312 5318 5324 5330 5336 5341 5345 5350 5354 5358 5362 5366
5259 5254 5251 5249 5246 5243 5240 5238 5236 5234 5233 5233 5233 5234 5234 5235 5236 5237 5239 5241 5244 5247 5250 5253 5257 5262 5267 5272 5278 5284 5290 5296 5302 5307 5313 5318 5324 5329 5334 5338 5342 5345 5349 5353
5253 5248 5245 5243 5241 5238 5235 5233 5230 5229 5228 5228 5228 5228 5227 5228 5228 5230 5232 5235 5237 5239 5242 5245 5249 5253 5258 5263 5269 5275 5281 5286 5292 5297 5303 5308 5313 5319 5323 5327 5331 5334 5337 5340
5248 5244 5241 5237 5235 5232 5230 5227 5224 5224 5223 5222 5222 5221 5221 5221 5222 5223 5225 5227 5228 5231 5234 5237 5240 5245 5250 5255 5260 5266 5271 5277 5283 5288 5292 5297 5302 5307 5311 5315 5318 5322 5325 5328
5239 5236 5233 5230 5228 5226 5223 5221 5219 5218 5217 5216 5215 5215 5214 5215 5216 5217 5218 5219 5221 5224 5227 5230 5233 5237 5242 5247 5252 5257 5262 5268 5273 5278 5282 5287 5291 5295 5299 5303 5306 5309 5312 5316
5234 5231 5227 5224 5221 5219 5217 5216 5214 5212 5211 5210 5209 5208 5207 5208 5208 5209 5210 5212 5215 5218 5221 5224 5227 5231 5235 5239 5244 5249 5254 5258 5263 5268 5272 5277 5281 5284 5288 5292 5295 5297 5300 5303
5228 5225 5222 5219 5216 5214 5211 5209 5208 5207 5206 5204 5203 5201 5201 5201 5201 5202 5203 5205 5208 5211 5215 5217 5222 5225 5228 5232 5236 5241 5245 5249 5254 5258 5262 5267 5270 5274 5277 5280 5283 5286 5289 5292
5221 5218 5215 5213 5210 5207 5205 5203 5202 5200 5199 5197 5196 5195 5194 5195 5195 5196 5197 5198 5201 5203 5207 5211 5215 5218 5221 5225 5229 5233 5236 5240 5244 5248 5252 5256 5260 5263 5266 5270 5272 5275 5278 5281
5214 5211 5209 5206 5203 5201 5199 5197 5195 5193 5192 5190 5189 5188 5187 5188 5188 5189 5190 5192 5195 5198 5201 5205 5208 5211 5214 5218 5221 5224 5228 5231 5235 5238 5242 5245 5249 5252 5256 5259 5262 5265 5267 5270
5207 5204 5201 5198 5195 5193 5191 5189 5188 5186 5184 5183 5183 5182 5182 5182 5182 5183 5184 5185 5189 5192 5195 5197 5200 5204 5207 5211 5213 5216 5219 5222 5226 5229 5232 5235 5239 5242 5245 5249 5252 5255 5257 5259
5200 5197 5194 5191 5188 5185 5184 5182 5180 5179 5177 5176 5176 5175 5175 5175 5175 5176 5178 5180 5182 5185 5188 5190 5194 5198 5201 5203 5205 5208 5211 5214 5217 5220 5222 5225 5229 5232 5235 5239 5242 5245 5247 5250
5193 5190 5187 5184 5181 5178 5176 5175 5174 5172 5171 5170 5169 5169 5169 5169 5169 5170 5171 5173 5176 5178 5181 5184 5187 5191 5194 5195 5197 5200 5203 5206 5208 5211 5214 5217 5220 5223 5226 5230 5233 5236 5239 5241
5186 5183 5180 5177 5174 5173 5171 5170 5168 5166 5165 5164 5164 5164 5163 5163 5163 5164 5164 5166 5169 5171 5173 5176 5179 5183 5184 5186 5189 5191 5194 5197 5200 5203 5205 5208 5211 5214 5217 5221 5224 5227 5230 5233
5180 5177 5174 5172 5170 5168 5166 5164 5162 5161 5160 5159 5159 5158 5158 5158 5157 5158 5159 5160 5162 5164 5166 5168 5170 5173 5175 5178 5180 5183 5186 5189 5192 5195 5197 5200 5203 5206 5210 5213 5216 5219 5222 5225
5175 5172 5170 5167 5165 5163 5160 5158 5156 5155 5154 5153 5152 5153 5152 5152 5152 5152 5153 5154 5155 5157 5159 5161 5163 5165 5167 5170 5172 5175 5178 5181 5184 5187 5190 5193 5196 5199 5202 5205 5208 5211 5214 5217